User: anonymous   Login
Location: Fort Wayne
(41.1310°N, 85.1290°W)
Time: 10:38:44
(UTC-04:00)
Language:

COSMOS 2428 - Orbit

View from above orbital plane
View from above orbital plane
View from above satellite
View from above satellite

Ground track
Ground track

The orbit data is extracted from the following two-line orbital elements,

1 31792U 07029A   17201.56363383 +.00000249 +00000-0 +16134-3 0  9991
2 31792 070.9206 342.0324 0011329 231.7418 128.2684 14.12291185518692
Epoch (UTC): 20 July 2017 13:31:37
Eccentricity: 0.0011329
inclination: 70.9206°
perigee height: 843 km
apogee height: 860 km
right ascension of ascending node: 342.0324°
argument of perigee: 231.7418°
revolutions per day: 14.12291185
mean anomaly at epoch: 128.2684°
orbit number at epoch: 51869

The dashed part of the orbit path shows where the satellite is in the earth's shadow,  

DLR